www.pogodaiklimat.ru
Время
(UTC), дата
21 13.10
00 14.10
03 14.10
06 14.10
09 14.10
12 14.10
15 14.10
18 14.10
21 14.10
00 15.10
03 15.10
06 15.10
09 15.10
12 15.10
15 15.10
18 15.10
21 15.10
00 16.10
03 16.10
06 16.10
09 16.10
12 16.10
15 16.10
18 16.10
21 16.10
00 17.10
03 17.10
06 17.10
09 17.10
12 17.10
15 17.10
18 17.10
21 17.10
00 18.10
03 18.10
06 18.10
09 18.10
12 18.10
15 18.10
18 18.10
21 18.10
00 19.10
03 19.10
06 19.10
09 19.10
12 19.10
15 19.10
18 19.10
21 19.10
00 20.10
03 20.10
06 20.10
09 20.10
12 20.10
15 20.10
18 20.10
Ветер
(напр.,м/с)
Видим. Явления Облачность Т
(С)
Тd
(С)
f
(%)
Тe
(С)
Тes
(С)
Комфортность P
(гПа)
Po
(гПа)
Тmin
(С)
Tmax
(С)
R
(мм)
R24
(мм)
S
(см)
З 3 4000 м дымка 10/8 100 м
[St Ac und]
+1.8 +1.5 98 -3 -3 по сезону 1009.6 1001.9
В 2 10 км 10/6 300 м
[Sc Ac und]
+1.2 +1.0 99 -2 -2 тепло 1008.6 1000.9
В 3 500 м туман ?/? +1.8 +1.7 99 -3 -3 по сезону 1006.7 999.0 +1.2
В 5 4000 м дымка {туман} 10/8 100 м
[St Ac und]
+3.9 +3.7 99 -1 -1 тепло 1004.5 996.8
В 6 2000 м слаб. морось {туман} 10/10 100 м
[St]
+4.6 +4.5 99 -1 -1 тепло 1002.2 994.6
В 4 4000 м слаб. ливневой дождь {морось} 10/9 100 м
[Cb calv Ac und]
+4.6 +4.5 99 0 0 тепло 1000.7 993.1
В 4 10 км слаб. дождь 10/8 100 м
[Frnb As op]
+4.7 +4.5 99 0 0 тепло 999.0 991.4 +4.8 1
В 4 4000 м {ливн. осадки, дождь} 10/10 100 м
[St]
+4.5 +4.3 99 -0 -0 тепло 996.5 988.9
В 4 10 км слаб. ливневой дождь 10/9 100 м
[Cb calv Ac und]
+4.5 +4.3 99 -0 -0 тепло 994.5 986.9
ЮВ 2 10 км слаб. ливневой дождь 10/9 100 м
[Cb calv Ac und]
+4.3 +4.1 99 +1 +1 тепло 993.1 985.5
ЮВ 2 1000 м в посл. час дождь {ливн. осадки} 10/10 100 м
[St]
+4.1 +4.0 99 +1 +1 тепло 992.4 984.9 +3.9 7
Ю 2 10 км {ливн. осадки, дождь} 10/8 100 м
[St Ac und]
+5.5 +5.3 99 +3 +3 тепло 992.1 984.7
ЮВ 1 10 км {ливн. осадки} 10/8 200 м
[St Ac und]
+5.9 +5.2 95 +5 +5 тепло 992.6 985.1
СВ 1 10 км в посл. час ливневой дождь 10/10 100 м
[Cb calv]
+5.3 +5.0 98 +4 +4 тепло 993.2 985.7
В 1 10 км слаб. ливневой дождь 10/8 100 м
[Cb calv Ac und]
+4.6 +4.4 99 +3 +3 тепло 993.5 985.9 +6.1 4
С 2 4000 м слаб. дождь 10/8 100 м
[Frnb As op]
+4.0 +3.8 99 +1 +1 тепло 994.1 986.5
С 4 4000 м слаб. дождь 10/6 100 м
[Frnb As op]
+1.9 +1.6 98 -3 -3 по сезону 995.0 987.4
С 5
{11}
10 км слаб. снег {дождь} 10/6 200 м
[Frnb As op]
-0.7 -1.4 95 -7 -7 по сезону 996.8 989.0
С 7-13
{14}
4000 м слаб. ливневой снег 10/9 200 м
[Cb calv Ac und]
-3.1 -4.0 93 -11 -11 прохладно 998.6 990.8 -3.1 3 2
С 7-13
{14}
2000 м ливневой снег 10/8 300 м
[Cb calv Ac und]
-4.3 -6.0 88 -13 -13 холодно 1001.0 993.2 -4.3
С 7-13
{16}
10 км слаб. ливневой снег {метель} 10/6 300 м
[Cb calv Ac und]
-4.8 -7.0 85 -13 -13 холодно 1002.9 995.1
С 8-13
{15}
10 км позёмок {ливн. осадки} 10/4 300 м
[Sc Ac und]
-6.1 -9.2 79 -15 -15 очень
холодно
1005.4 997.4
С 8-14
{16}
10 км позёмок 10/0
[Ac trans Ci fib]
-6.8 -9.7 80 -16 -16 очень
холодно
1007.1 999.1 -3.0 2
С 7-12
{14}
10 км позёмок 10/5 300 м
[Sc Ci fib]
-7.3 -9.4 85 -16 -16 очень
холодно
1008.4 1000.4
С 6-10
{14}
10 км позёмок 10/8 300 м
[Sc Ci fib]
-5.8 -8.0 84 -14 -14 холодно 1009.4 1001.4
С 5
{17}
10 км позёмок 10/4 300 м
[Sc Ci fib]
-6.6 -8.7 85 -14 -14 холодно 1010.4 1002.4
СЗ 5
{10}
4000 м слаб. ливневой снег 10/6 600 м
[Cb calv Ac und]
-5.5 -7.5 86 -13 -13 холодно 1011.2 1003.2 -7.3 0.0 2
С 6-10
{12}
10 км слаб. ливневой снег 10/8 300 м
[Cb calv Ac und]
-4.9 -9.0 73 -12 -12 холодно 1011.6 1003.6
С 5
{14}
10 км слаб. ливневой снег {метель} 10/8 600 м
[Cb calv Ac trans Cs]
-5.4 -9.5 73 -12 -12 холодно 1012.3 1004.3
СЗ 5
{11}
10 км позёмок {ливн. осадки} 8/5 600 м
[Cb calv Ac trans Ci fib]
-6.1 -8.7 82 -13 -13 холодно 1013.2 1005.1
С 5
{10}
10 км {метель} 8/0
[Ac trans Ci fib]
-8.3 -10.2 86 -16 -16 очень
холодно
1013.5 1005.4 -4.8 0.2
С 5
{11}
10 км позёмок 8/0
[Ac trans Ci fib]
-9.8 -11.5 87 -18 -18 очень
холодно
1014.2 1006.0
С 6-11
{11}
10 км позёмок 9/4 300 м
[Sc Ac trans Ci fib]
-8.9 -11.1 84 -17 -17 очень
холодно
1014.1 1006.0
С 7-12
{13}
10 км позёмок 10/4 300 м
[Sc Ac trans Ci fib]
-8.0 -10.4 83 -17 -17 очень
холодно
1014.4 1006.3
С 7-13
{14}
10 км слаб. снег {метель} 10/5 600 м
[Sc As op]
-7.3 -10.6 77 -16 -16 очень
холодно
1014.3 1006.2 -10.2 0.0 3
С 6-10
{13}
4000 м слаб. ливневой снег 10/6 600 м
[Cb calv Ac und]
-7.4 -10.3 80 -16 -16 очень
холодно
1014.9 1006.8
С 6-11
{12}
10 км слаб. ливневой снег {метель} 10/6 300 м
[Cb calv Ac und]
-7.7 -11.5 74 -16 -16 очень
холодно
1015.8 1007.7
С 5
{11}
10 км слаб. ливневой снег {метель} 10/6 300 м
[Cb calv Ac und]
-8.5 -11.4 80 -16 -16 очень
холодно
1017.0 1008.9
С 5
{12}
10 км слаб. ливневой снег {метель} 10/6 300 м
[Cb calv Ac und]
-8.4 -11.0 81 -16 -16 очень
холодно
1018.2 1010.1 -7.0 0.4
С 4
{11}
10 км слаб. снег 10/5 300 м
[Frnb As op]
-8.8 -11.1 83 -16 -16 очень
холодно
1019.3 1011.2
С 5
{10}
10 км позёмок {снег} 10/8 300 м
[Frnb As op]
-8.9 -10.9 85 -17 -17 очень
холодно
1020.2 1012.1
С 6
{10}
10 км слаб. снег {метель} 10/8 200 м
[Frnb As op]
-10.0 -11.4 89 -19 -19 очень
холодно
1021.7 1013.5
С 4 10 км {снег} 10/8 200 м
[St Ac und]
-10.0 -10.8 94 -17 -17 очень
холодно
1023.3 1015.0 -10.1 0.0 3
СЗ 4 50 км {снег} 4/3 1000 м
[Sc Ci fib]
-7.5 -10.5 79 -14 -14 очень
холодно
1024.8 1016.7 -10.3
СЗ 4 20 км 10/9 300 м
[Sc Ci fib]
-5.6 -9.1 76 -12 -12 холодно 1025.6 1017.5
З 1 10 км 10/10 600 м
[Sc]
-5.3 -8.5 78 -8 -8 по сезону 1026.2 1018.1
ЮЗ 2 10 км 10/10 600 м
[Sc]
-4.4 -7.2 81 -9 -9 прохладно 1025.9 1017.9 -4.3
ЮЗ 4 10 км 10/3 600 м
[Sc Ci fib]
-7.1 -9.2 85 -14 -14 холодно 1025.3 1017.2
ЮЗ 5 10 км 10/0
[Ci fib]
-6.9 -9.6 81 -14 -14 холодно 1023.9 1015.8
Ю 6 10 км 10/0
[Ac und]
-6.4 -9.1 81 -14 -14 прохладно 1022.2 1014.1
Ю 6 20 км 10/0
[Ac trans Ci fib]
-5.5 -8.4 80 -13 -13 прохладно 1020.2 1012.1 -7.5 3
Ю 8-11
{13}
20 км 10/0
[Ac trans Ci fib]
-3.9 -7.8 74 -12 -12 по сезону 1017.5 1009.6
Ю 9-13
{13}
20 км 10/0
[Ac trans Ci fib]
-3.0 -7.7 70 -11 -11 по сезону 1015.2 1007.3
Ю 9-13
{14}
10 км 10/0
[Ac trans Ci fib]
-3.5 -8.8 67 -12 -12 прохладно 1012.5 1004.7
Ю 9-12
{14}
10 км 10/0
[Ac trans Ci fib]
-2.8 -8.2 66 -11 -11 по сезону 1010.6 1002.8 -2.5
ЮЗ 9-12
{15}
10 км 10/6 1000 м
[Sc Ci fib]
-2.1 -7.3 68 -10 -10 по сезону 1008.9 1001.1
Местоположение метеостанции Новый Уренгой (Ямало-Ненецкий АО, Россия): широта 66.10 долгота 76.78 высота над уровнем моря 62 м.
В архиве по умолчанию представлена погода в Новом Уренгое за последнюю неделю. Архивные данные за месяц целиком и за предыдущие месяцы, начиная с января 2011 года, Вы можете получить, выбрав интересующий диапазон дат из раскрывающегося списка и нажав кнопку "Найти!".
*Определитесь, кто Вы:
Внимание! Время в таблицах - всемирное. Для получения местного времени необходимо прибавить поправку, которая равна 5 ч.
Смотрите также архив погоды в соседних городах и на ближайших метеорологических станциях:
Партнеры нашего сайта:      
Пояснения к столбцам:
  • Ветер - указаны скорость ветра в м/с - средняя за 10 мин, порывы в срок и между сроками (в фигурных скобках) и направление, откуда дует ветер: С - северный,
  • СВ - северо-восточный, В - восточный, ЮВ - юго-восточный, Ю - южный, ЮЗ - юго-западный, З - западный, СЗ - северо-западный.
  • Видимость - горизонтальная дальность видимости в метрах или километрах. При видимости от 1 до 10 км при отсутствии осадков обычно наблюдается дымка, при ухудшении видимости до 1 км и менее - туман. В сухую погоду видимость может ухудшаться дымом, пылью или мглою.
  • Явления - указаны атмосферные явления, наблюдавшиеся в срок или в последний час перед сроком; фигурными скобками обозначены явления, наблюдавшиеся между сроками (за 1-3 часа до срока); квадратными скобками обозначены град или гололедные отложения с указанием их диаметра в мм.
  • Облачность - указаны через наклонную черту общая и нижняя облачность в баллах и высота нижней границы облаков в метрах; квадратными скобками обозначены формы облаков: Ci - перистые, Cs - перисто-слоистые, Cc - перисто-кучевые, Ac - высококучевые, As - высокослоистые, Sc - слоисто-кучевые, Ns - слоисто-дождевые, Cu - кучевые, Cb - кучево-дождевые. Подробнее классификацию облаков см. в Атласе облаков (PDF).
  • T - Температура воздуха - температура, измеренная на высоте 2 м над землей.
  • Td - Температура точки росы - температура, при понижении до которой содержащийся в воздухе водяной пар достигнет насыщения.
  • f - Относительная влажность воздуха - влажноcть воздуха, измеренная на высоте 2 м над землей.
  • Te - Эффективная температура - температура, которую ощущает одетый по сезону человек в тени. Характеристика душности погоды. При расчете учитывается влияние влажности воздуха и скорости ветра на теплоощущения человека.
  • Tes - Эффективная температура на солнце - температура, которую ощущает человек, с поправкой на солнечный нагрев. Характеристика знойности погоды. Зависит от высоты солнца над горизонтом, облачности и скорости ветра. Ночью, в пасмурную погоду, а также при ветре 12 м/с и более поправка равна нулю.
  • P - Атмосферное давление - приведенное к уровню моря атмосферное давление.
  • Po - Атмосферное давление - измеренное на уровне метеостанции атмосферное давление.
  • Tmin - Минимальная температура - минимум температуры воздуха на высоте 2 м над землей.
  • Tmax - Максимальная температура - максимум температуры воздуха на высоте 2 м над землей.
  • R - Количество осадков - Количество выпавших осадков за период времени, мм. При наведении курсора мыши на число - период времени, за который выпало указанное количество осадков.
  • R24 - Количество осадков - Количество выпавших осадков за 24 часа, мм.
  • S - Снежный покров - Высота снежного покрова, см. При наведении курсора мыши на число - состояние снежного покрова и степень покрытия местности в баллах.